Time,TemperatureF,DewpointF,PressureIn,WindDirection,WindDirectionDegrees,WindSpeedMPH,WindSpeedGustMPH,Humidity,HourlyPrecipIn,Conditions,Clouds,dailyrainin,SoftwareType,DateUTC
2013-02-03 00:02:00,36.0,30.0,30.12,NNW,329,15.0,17.0,78,0.00,,,0.00,,2013-02-03 06:02:00,
2013-02-03 00:11:00,36.0,30.0,30.12,NNW,329,15.0,17.0,78,0.00,,,0.00,,2013-02-03 06:11:00,
2013-02-03 00:21:00,35.0,29.0,30.12,NNW,327,13.0,18.0,78,0.00,,,0.00,,2013-02-03 06:21:00,
2013-02-03 00:32:00,34.0,28.0,30.14,North,349,12.0,15.0,80,0.00,,,0.00,,2013-02-03 06:32:00,
2013-02-03 00:41:00,34.0,28.0,30.14,North,349,12.0,15.0,80,0.00,,,0.00,,2013-02-03 06:41:00,
2013-02-03 00:52:00,33.0,28.0,30.14,NNW,339,16.0,19.0,82,0.00,,,0.00,,2013-02-03 06:52:00,
2013-02-03 01:01:00,31.0,26.0,30.15,NNW,327,13.0,21.0,83,0.00,,,0.00,,2013-02-03 07:01:00,
2013-02-03 01:11:00,31.0,26.0,30.15,NNW,327,13.0,21.0,83,0.00,,,0.00,,2013-02-03 07:11:00,
2013-02-03 01:21:00,32.0,28.0,30.15,NW,316,14.0,19.0,84,0.00,,,0.00,,2013-02-03 07:21:00,
2013-02-03 01:31:00,31.0,27.0,30.16,NNW,327,12.0,16.0,84,0.00,,,0.00,,2013-02-03 07:31:00,
2013-02-03 01:41:00,31.0,27.0,30.16,NNW,327,12.0,16.0,84,0.00,,,0.00,,2013-02-03 07:41:00,
2013-02-03 01:52:00,31.0,26.0,30.17,NNW,329,12.0,15.0,83,0.00,,,0.00,,2013-02-03 07:52:00,
2013-02-03 02:01:00,30.0,26.0,30.18,NW,326,10.0,15.0,84,0.00,,,0.00,,2013-02-03 08:01:00,
2013-02-03 02:11:00,30.0,26.0,30.18,NW,326,10.0,15.0,84,0.00,,,0.00,,2013-02-03 08:11:00,
2013-02-03 02:22:00,30.0,25.0,30.19,NW,321,16.0,20.0,82,0.00,,,0.00,,2013-02-03 08:22:00,
2013-02-03 02:32:00,30.0,24.0,30.19,NW,325,14.0,20.0,77,0.00,,,0.00,,2013-02-03 08:32:00,
2013-02-03 02:41:00,30.0,24.0,30.19,NW,325,14.0,20.0,77,0.00,,,0.00,,2013-02-03 08:41:00,
2013-02-03 02:52:00,30.0,24.0,30.19,NNW,327,12.0,17.0,77,0.00,,,0.00,,2013-02-03 08:52:00,
2013-02-03 03:02:00,29.0,22.0,30.20,NW,321,9.0,12.0,76,0.00,,,0.00,,2013-02-03 09:02:00,
2013-02-03 03:11:00,29.0,22.0,30.20,NW,321,9.0,12.0,76,0.00,,,0.00,,2013-02-03 09:11:00,
2013-02-03 03:21:00,29.0,22.0,30.20,NW,317,10.0,15.0,76,0.00,,,0.00,,2013-02-03 09:21:00,
2013-02-03 03:31:00,28.0,21.0,30.20,NW,320,8.0,11.0,76,0.00,,,0.00,,2013-02-03 09:31:00,
2013-02-03 03:41:00,28.0,21.0,30.20,NW,320,8.0,11.0,76,0.00,,,0.00,,2013-02-03 09:41:00,
2013-02-03 03:51:00,27.0,21.0,30.20,NNW,327,13.0,17.0,77,0.00,,,0.00,,2013-02-03 09:51:00,
2013-02-03 04:01:00,27.0,19.0,30.19,NW,325,19.0,24.0,70,0.00,,,0.00,,2013-02-03 10:01:00,
2013-02-03 04:11:00,27.0,19.0,30.19,NW,318,17.0,21.0,71,0.00,,,0.00,,2013-02-03 10:11:00,
2013-02-03 04:21:00,27.0,19.0,30.19,NW,318,17.0,21.0,71,0.00,,,0.00,,2013-02-03 10:21:00,
2013-02-03 04:31:00,26.0,19.0,30.20,NNW,336,12.0,18.0,73,0.00,,,0.00,,2013-02-03 10:31:00,
2013-02-03 04:42:00,26.0,19.0,30.20,NNW,336,12.0,18.0,73,0.00,,,0.00,,2013-02-03 10:42:00,
2013-02-03 04:52:00,26.0,19.0,30.21,NNW,331,12.0,15.0,74,0.00,,,0.00,,2013-02-03 10:52:00,
2013-02-03 05:02:00,25.0,19.0,30.22,NNW,329,10.0,12.0,76,0.00,,,0.00,,2013-02-03 11:02:00,
2013-02-03 05:11:00,25.0,19.0,30.22,NNW,329,10.0,12.0,76,0.00,,,0.00,,2013-02-03 11:11:00,
2013-02-03 05:22:00,25.0,19.0,30.22,NNW,334,11.0,14.0,76,0.00,,,0.00,,2013-02-03 11:22:00,
2013-02-03 05:32:00,25.0,19.0,30.22,NW,326,10.0,14.0,76,0.00,,,0.00,,2013-02-03 11:32:00,
2013-02-03 05:41:00,25.0,19.0,30.22,NW,326,10.0,14.0,76,0.00,,,0.00,,2013-02-03 11:41:00,
2013-02-03 05:52:00,25.0,18.0,30.22,NNW,331,9.0,12.0,75,0.00,,,0.00,,2013-02-03 11:52:00,
2013-02-03 06:02:00,24.0,18.0,30.22,North,358,5.0,10.0,76,0.00,,,0.00,,2013-02-03 12:02:00,
2013-02-03 06:11:00,24.0,18.0,30.22,North,358,5.0,10.0,76,0.00,,,0.00,,2013-02-03 12:11:00,
2013-02-03 06:22:00,24.0,18.0,30.22,North,358,6.0,7.0,77,0.00,,,0.00,,2013-02-03 12:22:00,
2013-02-03 06:32:00,23.0,17.0,30.21,North,7,5.0,7.0,79,0.00,,,0.00,,2013-02-03 12:32:00,
2013-02-03 06:42:00,23.0,17.0,30.21,North,7,5.0,7.0,79,0.00,,,0.00,,2013-02-03 12:42:00,
2013-02-03 06:53:00,23.0,18.0,30.21,NE,35,3.0,5.0,80,0.00,,,0.00,,2013-02-03 12:53:00,
2013-02-03 07:03:00,22.0,17.0,30.21,WNW,295,0.0,0.0,81,0.00,,,0.00,,2013-02-03 13:03:00,
2013-02-03 07:11:00,22.0,17.0,30.21,NNW,333,3.0,4.0,82,0.00,,,0.00,,2013-02-03 13:11:00,
2013-02-03 07:21:00,22.0,17.0,30.21,NNW,333,3.0,4.0,82,0.00,,,0.00,,2013-02-03 13:21:00,
2013-02-03 07:32:00,21.0,17.0,30.22,WSW,249,4.0,5.0,83,0.00,,,0.00,,2013-02-03 13:32:00,
2013-02-03 07:42:00,21.0,17.0,30.22,WSW,249,4.0,5.0,83,0.00,,,0.00,,2013-02-03 13:42:00,
2013-02-03 07:52:00,20.0,16.0,30.22,WSW,247,4.0,5.0,83,0.00,,,0.00,,2013-02-03 13:52:00,
2013-02-03 08:02:00,21.0,17.0,30.22,West,266,6.0,6.0,84,0.00,,,0.00,,2013-02-03 14:02:00,
2013-02-03 08:11:00,21.0,17.0,30.22,West,266,6.0,6.0,84,0.00,,,0.00,,2013-02-03 14:11:00,
2013-02-03 08:21:00,21.0,17.0,30.22,WSW,239,5.0,6.0,84,0.00,,,0.00,,2013-02-03 14:21:00,
2013-02-03 08:32:00,22.0,18.0,30.22,West,260,4.0,6.0,84,0.00,,,0.00,,2013-02-03 14:32:00,
2013-02-03 08:42:00,22.0,18.0,30.22,West,260,4.0,6.0,84,0.00,,,0.00,,2013-02-03 14:42:00,
2013-02-03 08:52:00,23.0,19.0,30.22,West,261,5.0,7.0,83,0.00,,,0.00,,2013-02-03 14:52:00,
2013-02-03 09:03:00,24.0,19.0,30.22,WSW,243,6.0,7.0,80,0.00,,,0.00,,2013-02-03 15:03:00,
2013-02-03 09:11:00,25.0,19.0,30.22,SW,234,4.0,4.0,79,0.00,,,0.00,,2013-02-03 15:11:00,
2013-02-03 09:22:00,25.0,19.0,30.22,SW,234,4.0,4.0,79,0.00,,,0.00,,2013-02-03 15:22:00,
2013-02-03 09:33:00,27.0,20.0,30.20,WSW,238,6.0,7.0,75,0.00,,,0.00,,2013-02-03 15:33:00,
2013-02-03 09:41:00,27.0,20.0,30.20,WSW,238,6.0,7.0,75,0.00,,,0.00,,2013-02-03 15:41:00,
2013-02-03 09:51:00,28.0,21.0,30.20,SW,232,7.0,8.0,74,0.00,,,0.00,,2013-02-03 15:51:00,
2013-02-03 10:02:00,29.0,21.0,30.19,WSW,244,6.0,8.0,71,0.00,,,0.00,,2013-02-03 16:02:00,
2013-02-03 10:11:00,29.0,21.0,30.19,WSW,244,6.0,8.0,71,0.00,,,0.00,,2013-02-03 16:11:00,
2013-02-03 10:22:00,30.0,21.0,30.18,SW,222,6.0,8.0,70,0.00,,,0.00,,2013-02-03 16:22:00,
2013-02-03 10:32:00,31.0,22.0,30.17,SW,230,9.0,11.0,69,0.00,,,0.00,,2013-02-03 16:32:00,
2013-02-03 10:41:00,31.0,22.0,30.17,SW,230,9.0,11.0,69,0.00,,,0.00,,2013-02-03 16:41:00,
2013-02-03 10:52:00,32.0,23.0,30.16,SSW,206,7.0,10.0,69,0.00,,,0.00,,2013-02-03 16:52:00,
2013-02-03 11:02:00,33.0,25.0,30.15,SW,229,9.0,12.0,71,0.00,,,0.00,,2013-02-03 17:02:00,
2013-02-03 11:11:00,33.0,25.0,30.15,SW,229,9.0,12.0,71,0.00,,,0.00,,2013-02-03 17:11:00,
2013-02-03 11:21:00,33.0,25.0,30.14,SW,228,13.0,14.0,72,0.00,,,0.00,,2013-02-03 17:21:00,
2013-02-03 11:32:00,35.0,27.0,30.14,SSW,206,9.0,13.0,71,0.00,,,0.00,,2013-02-03 17:32:00,
2013-02-03 11:42:00,35.0,27.0,30.14,SSW,206,9.0,13.0,71,0.00,,,0.00,,2013-02-03 17:42:00,
2013-02-03 11:52:00,35.0,26.0,30.13,SSW,205,10.0,15.0,70,0.00,,,0.00,,2013-02-03 17:52:00,
2013-02-03 12:03:00,36.0,26.0,30.12,SW,223,11.0,15.0,67,0.00,,,0.00,,2013-02-03 18:03:00,
2013-02-03 12:12:00,36.0,26.0,30.12,SW,223,11.0,15.0,67,0.00,,,0.00,,2013-02-03 18:12:00,
2013-02-03 12:23:00,36.0,26.0,30.11,SSW,208,10.0,14.0,66,0.00,,,0.00,,2013-02-03 18:23:00,
2013-02-03 12:32:00,38.0,27.0,30.10,SSW,198,10.0,17.0,64,0.00,,,0.00,,2013-02-03 18:32:00,
2013-02-03 12:42:00,38.0,27.0,30.10,SSW,198,10.0,17.0,64,0.00,,,0.00,,2013-02-03 18:42:00,
2013-02-03 12:51:00,38.0,27.0,30.10,SSW,198,10.0,17.0,64,0.00,,,0.00,,2013-02-03 18:51:00,
2013-02-03 13:02:00,38.0,25.0,30.06,SSW,211,14.0,17.0,60,0.00,,,0.00,,2013-02-03 19:02:00,
2013-02-03 13:11:00,38.0,25.0,30.06,SSW,211,14.0,17.0,60,0.00,,,0.00,,2013-02-03 19:11:00,
2013-02-03 13:22:00,38.0,26.0,30.06,SSW,198,14.0,17.0,61,0.00,,,0.00,,2013-02-03 19:22:00,
2013-02-03 13:32:00,39.0,26.0,30.05,SSW,193,13.0,18.0,60,0.00,,,0.00,,2013-02-03 19:32:00,
2013-02-03 13:41:00,39.0,26.0,30.05,SSW,193,13.0,18.0,60,0.00,,,0.00,,2013-02-03 19:41:00,
2013-02-03 13:51:00,39.0,26.0,30.05,SW,217,13.0,20.0,60,0.00,,,0.00,,2013-02-03 19:51:00,
2013-02-03 14:01:00,40.0,27.0,30.03,SW,216,17.0,21.0,59,0.00,,,0.00,,2013-02-03 20:01:00,
2013-02-03 14:12:00,40.0,27.0,30.03,SW,216,17.0,21.0,59,0.00,,,0.00,,2013-02-03 20:12:00,
2013-02-03 14:21:00,40.0,27.0,30.03,SSW,203,13.0,17.0,59,0.00,,,0.00,,2013-02-03 20:21:00,
2013-02-03 14:32:00,41.0,28.0,30.01,SW,217,12.0,15.0,59,0.00,,,0.00,,2013-02-03 20:32:00,
2013-02-03 14:42:00,41.0,28.0,30.01,SW,217,12.0,15.0,59,0.00,,,0.00,,2013-02-03 20:42:00,
2013-02-03 14:52:00,40.0,27.0,30.00,SSW,202,16.0,19.0,59,0.00,,,0.00,,2013-02-03 20:52:00,
2013-02-03 15:03:00,41.0,28.0,29.99,SSW,208,13.0,16.0,60,0.00,,,0.00,,2013-02-03 21:03:00,
2013-02-03 15:11:00,41.0,28.0,29.99,SSW,208,13.0,16.0,60,0.00,,,0.00,,2013-02-03 21:11:00,
2013-02-03 15:21:00,41.0,28.0,29.98,SW,219,12.0,22.0,60,0.00,,,0.00,,2013-02-03 21:21:00,
2013-02-03 15:32:00,42.0,29.0,29.96,SSW,207,12.0,14.0,60,0.00,,,0.00,,2013-02-03 21:32:00,
2013-02-03 15:42:00,42.0,29.0,29.96,SSW,207,12.0,14.0,60,0.00,,,0.00,,2013-02-03 21:42:00,
2013-02-03 15:51:00,42.0,29.0,29.96,SSW,196,15.0,21.0,60,0.00,,,0.00,,2013-02-03 21:51:00,
2013-02-03 16:01:00,42.0,30.0,29.95,SSW,204,11.0,17.0,62,0.00,,,0.00,,2013-02-03 22:01:00,
2013-02-03 16:11:00,42.0,30.0,29.95,SSW,204,11.0,17.0,62,0.00,,,0.00,,2013-02-03 22:11:00,
2013-02-03 16:21:00,41.0,29.0,29.95,SSW,211,17.0,23.0,61,0.00,,,0.00,,2013-02-03 22:21:00,
2013-02-03 16:32:00,41.0,29.0,29.93,SSW,207,16.0,22.0,62,0.00,,,0.00,,2013-02-03 22:32:00,
2013-02-03 16:41:00,41.0,29.0,29.93,SSW,207,16.0,22.0,62,0.00,,,0.00,,2013-02-03 22:41:00,
2013-02-03 16:51:00,41.0,29.0,29.92,SW,214,13.0,19.0,62,0.00,,,0.00,,2013-02-03 22:51:00,
2013-02-03 17:01:00,41.0,29.0,29.91,SW,218,11.0,15.0,63,0.00,,,0.00,,2013-02-03 23:01:00,
2013-02-03 17:12:00,41.0,29.0,29.91,SW,218,11.0,15.0,63,0.00,,,0.00,,2013-02-03 23:12:00,
2013-02-03 17:22:00,41.0,30.0,29.90,SSW,209,11.0,15.0,64,0.00,,,0.00,,2013-02-03 23:22:00,
2013-02-03 17:32:00,40.0,30.0,29.89,SSW,203,11.0,13.0,66,0.00,,,0.00,,2013-02-03 23:32:00,
2013-02-03 17:41:00,40.0,30.0,29.89,SSW,203,11.0,13.0,66,0.00,,,0.00,,2013-02-03 23:41:00,
2013-02-03 17:52:00,40.0,30.0,29.88,SSW,209,12.0,17.0,67,0.00,,,0.00,,2013-02-03 23:52:00,
2013-02-03 18:01:00,39.0,29.0,29.88,SSW,205,13.0,17.0,68,0.00,,,0.00,,2013-02-04 00:01:00,
2013-02-03 18:11:00,39.0,29.0,29.88,SSW,205,13.0,17.0,68,0.00,,,0.00,,2013-02-04 00:11:00,
2013-02-03 18:22:00,39.0,30.0,29.89,SSW,210,10.0,15.0,69,0.00,,,0.00,,2013-02-04 00:22:00,
2013-02-03 18:32:00,39.0,30.0,29.88,SSW,211,12.0,13.0,69,0.00,,,0.00,,2013-02-04 00:32:00,
2013-02-03 18:41:00,39.0,30.0,29.88,SSW,211,12.0,13.0,69,0.00,,,0.00,,2013-02-04 00:41:00,
2013-02-03 18:51:00,39.0,30.0,29.88,SSW,209,11.0,13.0,70,0.00,,,0.00,,2013-02-04 00:51:00,
2013-02-03 19:01:00,39.0,30.0,29.89,SW,214,8.0,10.0,71,0.00,,,0.00,,2013-02-04 01:01:00,
2013-02-03 19:11:00,39.0,30.0,29.89,SSW,209,9.0,12.0,71,0.00,,,0.00,,2013-02-04 01:11:00,
2013-02-03 19:21:00,39.0,30.0,29.89,SSW,209,9.0,12.0,71,0.00,,,0.00,,2013-02-04 01:21:00,
2013-02-03 19:31:00,38.0,30.0,29.88,SW,219,7.0,10.0,72,0.00,,,0.00,,2013-02-04 01:31:00,
2013-02-03 19:41:00,38.0,30.0,29.88,SW,219,7.0,10.0,72,0.00,,,0.00,,2013-02-04 01:41:00,
2013-02-03 19:52:00,38.0,30.0,29.88,SSW,212,9.0,12.0,73,0.00,,,0.00,,2013-02-04 01:52:00,
2013-02-03 20:02:00,38.0,30.0,29.86,SSW,205,9.0,11.0,74,0.00,,,0.00,,2013-02-04 02:02:00,
2013-02-03 20:11:00,38.0,30.0,29.86,SSW,205,9.0,11.0,74,0.00,,,0.00,,2013-02-04 02:11:00,
2013-02-03 20:21:00,38.0,30.0,29.86,SSW,203,8.0,11.0,74,0.00,,,0.00,,2013-02-04 02:21:00,
2013-02-03 20:31:00,38.0,31.0,29.85,SSW,208,6.0,7.0,75,0.00,,,0.00,,2013-02-04 02:31:00,
2013-02-03 20:41:00,38.0,31.0,29.85,SSW,208,6.0,7.0,75,0.00,,,0.00,,2013-02-04 02:41:00,
2013-02-03 20:52:00,37.0,30.0,29.85,SSW,205,8.0,9.0,76,0.00,,,0.00,,2013-02-04 02:52:00,
2013-02-03 21:02:00,37.0,30.0,29.84,SW,214,7.0,9.0,76,0.00,,,0.00,,2013-02-04 03:02:00,
2013-02-03 21:11:00,38.0,31.0,29.83,SSW,212,8.0,10.0,76,0.00,,,0.00,,2013-02-04 03:11:00,
2013-02-03 21:21:00,38.0,31.0,29.83,SSW,212,8.0,10.0,76,0.00,,,0.00,,2013-02-04 03:21:00,
2013-02-03 21:32:00,38.0,31.0,29.82,SSW,212,10.0,11.0,76,0.00,,,0.00,,2013-02-04 03:32:00,
2013-02-03 21:41:00,38.0,31.0,29.82,SSW,212,10.0,11.0,76,0.00,,,0.00,,2013-02-04 03:41:00,
2013-02-03 21:51:00,38.0,31.0,29.82,SSW,209,9.0,11.0,76,0.00,,,0.00,,2013-02-04 03:51:00,
2013-02-03 22:01:00,38.0,31.0,29.82,SSW,208,9.0,10.0,75,0.00,,,0.00,,2013-02-04 04:01:00,
2013-02-03 22:11:00,38.0,31.0,29.82,SSW,208,9.0,10.0,75,0.00,,,0.00,,2013-02-04 04:11:00,
2013-02-03 22:21:00,38.0,31.0,29.81,SW,214,8.0,11.0,76,0.00,,,0.00,,2013-02-04 04:21:00,
2013-02-03 22:32:00,37.0,30.0,29.80,SSW,211,8.0,10.0,77,0.00,,,0.00,,2013-02-04 04:32:00,
2013-02-03 22:41:00,37.0,30.0,29.80,SSW,211,8.0,10.0,77,0.00,,,0.00,,2013-02-04 04:41:00,
2013-02-03 22:52:00,37.0,30.0,29.80,SW,220,7.0,9.0,77,0.00,,,0.00,,2013-02-04 04:52:00,
2013-02-03 23:03:00,37.0,30.0,29.79,SW,227,8.0,11.0,77,0.00,,,0.00,,2013-02-04 05:03:00,
2013-02-03 23:11:00,37.0,30.0,29.79,SW,227,8.0,11.0,77,0.00,,,0.00,,2013-02-04 05:11:00,
2013-02-03 23:22:00,37.0,30.0,29.79,SW,229,7.0,9.0,77,0.00,,,0.00,,2013-02-04 05:22:00,
2013-02-03 23:33:00,37.0,30.0,29.78,SW,232,6.0,8.0,77,0.00,,,0.00,,2013-02-04 05:33:00,
2013-02-03 23:42:00,37.0,30.0,29.78,SW,232,6.0,8.0,77,0.00,,,0.00,,2013-02-04 05:42:00,
2013-02-03 23:52:00,38.0,31.0,29.78,SW,227,8.0,10.0,76,0.00,,,0.00,,2013-02-04 05:52:00,